Weather in Terracina

Italy     41°17′22″N   13°15′00″E
temp.,
°C
wind,
m/s
gust,
m/s
humid.,
%
clouds,
%
prec.,
mm/h
press.,
hPa
HPBL,
m
8 march, mon
mon801:00+12ene458982 2.4 1017235
04:00+12ene448499 0.4 1016197
07:00+13ese458399 1.1 1015354
10:00+12e4587100 3.3 1015423
13:00+12e3388100 7.3 1014297
16:00+12ene4586100 4.1 1014288
19:00+12ene4580100 4.6 1013252
22:00+12e4578100 0.0 1014275
9 march, tue
tue901:00+12ese4585100 1.0 1013299
04:00+11e7990100 8.9 1012569
07:00+11ene4691100 27.7 1012454
10:00+10ne4491100 12.1 1012201
13:00+12e6687100 14.6 1011324
16:00+14e4583100 0.6 1010249
19:00+13ese4486100 2.3 1010155
22:00+13se2386100 3.4 1012146
10 march, wed
wed1001:00+13ene1385100 6.4 1011122
04:00+11nnw448842 1.5 1011219
07:00+11nnw228668 1.8 1012175
10:00+12se338144 0.6 1014512
13:00+12sse557757 1.3 1015533
16:00+12sse447343 0.3 1015503
19:00+11se237223 0.4 1017399
22:00+10nne34741 0.0 1020174
11 march, thu
thu1101:00+9ne33660 0.0 1021156
04:00+8ne33610 0.0 1021136
07:00+8ne225819 0.0 1023152
10:00+11se115462 0.0 1024293
13:00+11sw236531 0.0 1024406
16:00+13w44691 0.0 1023882
19:00+11wnw44718 0.0 1024370
22:00+10nnw337320 0.0 1025171
12 march, fri
fri1201:00+10nnw236830 0.0 1024158
04:00+10n226481 0.0 1023130
07:00+10ene226890 0.0 1022120
10:00+12ese337188 0.0 1022352
13:00+13se347092 0.0 1021539
16:00+13se4473100 0.0 1019766
19:00+13se457994 0.1 1019616
22:00+13se347987 0.1 1019668